GW3820 Weather Reports


time (UTC)temp
C
wind
direction
speed
KPH
gust
KPH
rain 1hr
cm
rain 24hr
cm
rain mn
cm
humidity
%
barometer
mb
20260506181816 12 299 1.6 12.9 0.00 0.13 0.00 44 1012.4
20260506180836 12 253 9.7 16.1 0.00 0.13 0.00 44 1012.4
20260506175836 11 18 4.8 14.5 0.00 0.13 0.00 45 1012.5
20260506174816 11 305 9.7 16.1 0.00 0.13 0.00 46 1012.6
20260506173816 11 7 4.8 11.3 0.00 0.13 0.00 45 1012.8
20260506172835 11 322 9.7 19.3 0.00 0.13 0.00 44 1012.7
20260506171816 11 301 4.8 24.1 0.00 0.13 0.00 43 1012.9
20260506170816 11 316 11.3 17.7 0.00 0.13 0.00 45 1012.6
20260506165816 12 274 4.8 12.9 0.00 0.13 0.00 44 1012.4
20260506164816 12 307 12.9 17.7 0.00 0.13 0.00 40 1012.4
20260506163816 12 304 4.8 12.9 0.00 0.13 0.00 41 1012.3
20260506162856 12 305 9.7 16.1 0.00 0.13 0.00 41 1012.3
20260506161816 12 262 11.3 20.9 0.00 0.13 0.00 41 1012.3
20260506160835 12 256 9.7 16.1 0.00 0.13 0.00 41 1012.4
20260506155816 13 312 12.9 24.1 0.00 0.13 0.00 43 1012.2
20260506154816 12 308 8.0 16.1 0.00 0.13 0.00 42 1012.2
20260506153816 13 287 11.3 17.7 0.00 0.13 0.00 40 1012.0
20260506152836 13 321 6.4 11.3 0.00 0.13 0.00 43 1011.9
20260506151816 12 335 11.3 24.1 0.00 0.13 0.00 42 1011.7
20260506150816 12 278 8.0 16.1 0.00 0.13 0.00 43 1011.7
20260506145816 12 339 4.8 12.9 0.00 0.13 0.00 46 1011.6
20260506144835 12 233 6.4 11.3 0.00 0.13 0.00 46 1011.6
20260506143816 12 324 14.5 17.7 0.00 0.13 0.00 45 1011.5
20260506142816 11 261 8.0 17.7 0.00 0.13 0.00 44 1011.5
20260506141816 11 353 8.0 12.9 0.00 0.13 0.00 47 1011.6
20260506140816 11 325 4.8 9.7 0.00 0.13 0.00 50 1011.8
20260506135816 11 283 4.8 11.3 0.00 0.13 0.00 49 1011.4
20260506134816 11 315 8.0 12.9 0.00 0.13 0.00 48 1011.1
20260506133816 11 351 6.4 17.7 0.00 0.13 0.00 52 1011.3
20260506132816 10 1 11.3 16.1 0.00 0.13 0.00 53 1011.1
20260506131816 10 323 4.8 9.7 0.00 0.13 0.00 56 1010.7
20260506130816 10 2 6.4 12.9 0.00 0.13 0.00 56 1010.8
20260506125816 9 42 3.2 4.8 0.00 0.13 0.00 57 1010.7
20260506124816 9 313 8.0 11.3 0.00 0.13 0.00 61 1010.6
20260506123816 8 312 4.8 8.0 0.00 0.13 0.00 61 1010.6
20260506122816 8 296 4.8 6.4 0.00 0.13 0.00 62 1010.4
20260506121816 8 330 4.8 8.0 0.00 0.13 0.00 66 1010.3
20260506120816 7 319 1.6 8.0 0.00 0.13 0.00 68 1010.0
20260506115816 7 346 3.2 4.8 0.00 0.13 0.00 78 1010.2
20260506114816 6 316 3.2 4.8 0.00 0.13 0.00 79 1009.9
20260506113817 6 0.0 0.0 0.00 0.13 0.00 81 1009.9
20260506112816 6 0.0 0.0 0.00 0.13 0.00 82 1009.8
20260506111816 6 312 1.6 4.8 0.00 0.13 0.00 83 1009.6
20260506110816 6 336 0.0 1.6 0.00 0.13 0.00 83 1009.5
20260506105816 6 0.0 1.6 0.00 0.13 0.00 84 1009.3
20260506104816 6 311 0.0 4.8 0.00 0.13 0.00 86 1009.3
20260506103836 6 287 1.6 3.2 0.00 0.13 0.00 86 1009.0
20260506102816 6 0.0 0.0 0.00 0.13 0.00 86 1008.9
20260506101816 6 0.0 0.0 0.00 0.13 0.00 86 1008.9
20260506100816 6 0.0 0.0 0.00 0.13 0.00 86 1008.7
20260506095816 6 0.0 0.0 0.00 0.13 0.00 86 1008.6
20260506094836 6 292 0.0 1.6 0.00 0.13 0.00 86 1008.6
20260506093816 6 0.0 0.0 0.00 0.13 0.00 86 1008.8
20260506092816 7 0.0 0.0 0.00 0.13 0.00 86 1008.7
20260506091816 7 0.0 0.0 0.00 0.13 0.00 86 1008.6
20260506090816 7 0.0 0.0 0.00 0.13 0.00 86 1008.7
20260506085816 7 0.0 0.0 0.00 0.13 0.00 86 1008.4
20260506084816 7 0.0 0.0 0.00 0.13 0.00 86 1008.3
20260506083817 7 0.0 0.0 0.00 0.13 0.00 86 1008.5
20260506082837 7 0.0 0.0 0.00 0.13 0.00 86 1008.4
20260506081816 7 0.0 0.0 0.00 0.13 0.00 86 1008.3
20260506080816 7 0.0 0.0 0.00 0.13 0.00 86 1008.2
20260506072957 7 0.0 0.0 0.00 0.13 0.00 85 1008.5
20260506071836 7 0.0 0.0 0.00 0.13 0.00 85 1008.6
20260506070817 7 0.0 0.0 0.00 0.13 0.00 85 1008.3
20260506061816 7 0.0 0.0 0.00 0.13 0.00 84 1008.8
20260506060816 7 0.0 0.0 0.00 0.13 0.00 84 1008.9
20260506050816 7 0.0 0.0 0.00 0.18 0.00 83 1008.7
20260506044836 7 0.0 0.0 0.00 0.25 0.00 83 1008.8
20260506043816 7 0.0 1.6 0.00 0.25 0.00 83 1008.7
20260506042817 8 0.0 0.0 0.00 0.25 0.00 83 1008.9
20260506041816 8 0.0 0.0 0.03 0.28 0.00 83 1008.8
20260506040816 8 0.0 0.0 0.03 0.28 0.00 83 1009.0
20260506035816 8 0.0 0.0 0.03 0.28 0.28 82 1008.9
20260506034816 8 0.0 0.0 0.03 0.28 0.28 82 1008.5
20260506033816 8 0.0 0.0 0.03 0.28 0.28 82 1008.3
20260506032816 8 0.0 0.0 0.03 0.28 0.28 81 1008.3
20260506031836 8 0.0 0.0 0.03 0.25 0.25 81 1008.4
20260506030816 8 0.0 0.0 0.03 0.25 0.25 81 1008.6
20260506025817 8 0.0 0.0 0.03 0.25 0.25 80 1008.7
20260506024816 8 0.0 0.0 0.03 0.25 0.25 80 1008.8
20260506023816 8 0.0 0.0 0.05 0.25 0.25 79 1008.9
20260506022816 8 0.0 0.0 0.05 0.25 0.25 78 1008.8
20260506021816 8 0.0 0.0 0.03 0.23 0.23 77 1008.7
20260506020816 8 0.0 0.0 0.05 0.23 0.23 77 1008.8
20260506015816 9 0.0 0.0 0.05 0.23 0.23 76 1008.7
20260506014816 9 0.0 0.0 0.08 0.23 0.23 76 1008.5
20260506013817 10 0.0 0.0 0.05 0.20 0.20 75 1008.5
20260506012816 10 0.0 0.0 0.05 0.20 0.20 74 1008.1
20260506011816 10 267 0.0 1.6 0.05 0.20 0.20 73 1008.0
20260506010917 11 0.0 0.0 0.03 0.18 0.18 71 1007.9
20260506005816 11 0.0 0.0 0.03 0.18 0.18 70 1007.8
20260506004816 11 0.0 0.0 0.00 0.15 0.15 68 1007.8
20260506003836 11 0.0 0.0 0.00 0.15 0.15 67 1008.0
20260506002816 11 247 1.6 3.2 0.00 0.15 0.15 64 1008.0
20260506001816 11 302 3.2 6.4 0.00 0.23 0.15 60 1008.0
20260506000918 11 323 3.2 6.4 0.00 0.30 0.15 62 1008.0
20260505235817 12 258 1.6 3.2 0.00 0.43 0.15 64 1008.0
20260505234817 12 0.0 1.6 0.00 0.56 0.15 62 1007.6
20260505233837 12 269 3.2 6.4 0.00 0.56 0.15 62 1007.3
20260505232816 12 307 4.8 6.4 0.00 0.58 0.15 64 1007.1
20260505231816 12 310 1.6 3.2 0.00 1.22 0.15 65 1007.0
20260505230817 12 275 3.2 4.8 0.00 1.40 0.15 68 1007.2
20260505225816 12 234 0.0 1.6 0.00 1.40 0.15 66 1007.1
20260505224837 12 272 1.6 4.8 0.00 1.40 0.15 66 1007.3
20260505223817 12 334 1.6 3.2 0.00 1.40 0.15 66 1007.2
20260505222817 12 286 0.0 4.8 0.00 1.40 0.15 66 1007.3
20260505221816 12 230 1.6 3.2 0.00 1.40 0.15 66 1007.2
20260505220836 12 338 0.0 1.6 0.00 1.40 0.15 66 1007.2
20260505215837 12 241 3.2 4.8 0.00 1.40 0.15 65 1007.3
20260505214817 12 303 1.6 3.2 0.00 1.40 0.15 66 1007.4
20260505213836 12 289 3.2 4.8 0.00 1.40 0.15 65 1007.4
20260505212817 12 258 3.2 4.8 0.00 1.40 0.15 65 1007.3
20260505211837 12 219 1.6 4.8 0.00 1.40 0.15 65 1007.2
20260505210816 12 306 8.0 12.9 0.00 1.40 0.15 64 1007.4
20260505205837 12 266 3.2 6.4 0.00 1.40 0.15 64 1007.5
20260505204817 12 249 4.8 9.7 0.00 1.40 0.15 63 1007.5
20260505203816 12 269 4.8 16.1 0.00 1.40 0.15 64 1007.5
20260505202816 12 270 3.2 4.8 0.00 1.40 0.15 64 1007.6
20260505201817 12 286 3.2 11.3 0.00 1.40 0.15 62 1007.7
20260505200816 12 240 8.0 14.5 0.00 1.40 0.15 64 1007.8
20260505195816 12 245 4.8 8.0 0.00 1.40 0.15 64 1007.8
20260505194816 12 238 3.2 9.7 0.00 1.40 0.15 64 1007.8
20260505193837 12 303 3.2 6.4 0.00 1.40 0.15 67 1008.0
20260505192816 12 233 8.0 14.5 0.00 1.40 0.15 68 1008.0
20260505191817 12 244 4.8 9.7 0.00 1.40 0.15 67 1007.8
20260505190816 11 183 1.6 8.0 0.00 1.40 0.15 69 1007.9
20260505185817 11 251 3.2 12.9 0.00 1.40 0.15 68 1008.1
20260505184816 12 262 6.4 14.5 0.00 1.40 0.15 69 1008.1
20260505183816 12 228 4.8 16.1 0.00 1.40 0.15 66 1008.2
20260505182817 12 226 8.0 16.1 0.00 1.40 0.15 64 1008.0